Location: Friaudour
(46.0460°N, 1.2873°E)
Time: 09:47:46
(UTC+00:00)

Cosmos 1242 Rocket - Pass Details

Date: 14 July 2020
Orbit: 448 x 487 km, 81.2° (Epoch: 05 August)

Event Time Altitude Azimuth Distance (km) Brightness Sun altitude
Rises 03:16:25 0° 343° (NNW) 2,464 6.6 -9.1°
Reaches altitude 10° 03:18:32 10° 337° (NNW) 1,589 5.5 -8.9°
Maximum altitude 03:21:52 45° 264° (W) 624 2.8 -8.5°
Drops below altitude 10° 03:25:11 10° 190° (S) 1,587 4.7 -8.0°
Enters shadow 03:26:21 - 186° (S) 2,065 5.3 -7.9°
